TimeCST,TemperatureF,Dew PointF,Humidity,Sea Level PressureIn,VisibilityMPH,Wind Direction,Wind SpeedMPH,Gust SpeedMPH,PrecipitationIn,Events,Conditions,WindDirDegrees,DateUTC
12:15 AM,23.0,19.4,86,29.78,10.0,Calm,Calm,-,N/A,,Clear,0,2013-02-13 06:15:00
12:35 AM,23.0,19.4,86,29.78,10.0,SW,3.5,-,N/A,,Clear,230,2013-02-13 06:35:00
12:55 AM,23.0,19.4,86,29.77,10.0,SW,4.6,-,N/A,,Clear,220,2013-02-13 06:55:00
1:15 AM,23.0,19.4,86,29.77,10.0,Calm,Calm,-,N/A,,Clear,0,2013-02-13 07:15:00
1:35 AM,23.0,19.4,86,29.77,10.0,SW,3.5,-,N/A,,Clear,230,2013-02-13 07:35:00
1:55 AM,23.0,19.4,86,29.76,10.0,WSW,3.5,-,N/A,,Clear,240,2013-02-13 07:55:00
2:15 AM,23.0,19.4,86,29.75,10.0,SW,3.5,-,N/A,,Clear,220,2013-02-13 08:15:00
2:35 AM,23.0,19.4,86,29.75,10.0,SW,4.6,-,N/A,,Clear,220,2013-02-13 08:35:00
2:55 AM,23.0,19.4,86,29.75,10.0,SW,3.5,-,N/A,,Clear,220,2013-02-13 08:55:00
3:15 AM,21.2,19.4,93,29.74,10.0,SSW,3.5,-,N/A,,Clear,210,2013-02-13 09:15:00
3:35 AM,21.2,19.4,93,29.74,10.0,SSW,3.5,-,N/A,,Clear,210,2013-02-13 09:35:00
3:55 AM,21.2,19.4,93,29.73,7.0,SW,4.6,-,N/A,,Scattered Clouds,220,2013-02-13 09:55:00
4:15 AM,21.2,19.4,93,29.72,7.0,SW,4.6,-,N/A,,Scattered Clouds,230,2013-02-13 10:15:00
4:35 AM,21.2,19.4,93,29.72,7.0,SW,4.6,-,N/A,,Clear,220,2013-02-13 10:35:00
4:55 AM,23.0,19.4,86,29.72,7.0,SW,4.6,-,N/A,,Clear,230,2013-02-13 10:55:00
5:15 AM,23.0,21.2,93,29.71,7.0,SW,5.8,-,N/A,,Clear,230,2013-02-13 11:15:00
5:35 AM,23.0,21.2,93,29.71,7.0,WSW,6.9,-,N/A,,Clear,240,2013-02-13 11:35:00
5:55 AM,23.0,21.2,93,29.71,7.0,SW,6.9,-,N/A,,Mostly Cloudy,230,2013-02-13 11:55:00
6:15 AM,23.0,21.2,93,29.71,7.0,SW,4.6,-,N/A,,Overcast,230,2013-02-13 12:15:00
6:35 AM,23.0,21.2,93,29.71,7.0,SW,5.8,-,N/A,,Overcast,230,2013-02-13 12:35:00
6:55 AM,23.0,21.2,93,29.71,7.0,SW,3.5,-,N/A,,Overcast,220,2013-02-13 12:55:00
7:15 AM,23.0,21.2,93,29.71,7.0,SW,4.6,-,N/A,,Overcast,230,2013-02-13 13:15:00
7:35 AM,23.0,21.2,93,29.70,5.0,SW,4.6,-,N/A,,Overcast,230,2013-02-13 13:35:00
7:55 AM,24.8,21.2,86,29.70,7.0,SW,5.8,-,N/A,,Overcast,230,2013-02-13 13:55:00
8:15 AM,24.8,21.2,86,29.70,7.0,SW,3.5,-,N/A,,Overcast,230,2013-02-13 14:15:00
8:35 AM,26.6,21.2,80,29.70,7.0,WSW,5.8,-,N/A,,Overcast,240,2013-02-13 14:35:00
8:55 AM,26.6,21.2,80,29.69,7.0,SW,5.8,-,N/A,,Mostly Cloudy,230,2013-02-13 14:55:00
9:15 AM,26.6,23.0,86,29.69,7.0,WSW,3.5,-,N/A,,Scattered Clouds,240,2013-02-13 15:15:00
9:35 AM,28.4,23.0,80,29.69,7.0,WSW,5.8,-,N/A,,Mostly Cloudy,250,2013-02-13 15:35:00
9:55 AM,28.4,23.0,80,29.69,10.0,West,4.6,-,N/A,,Scattered Clouds,260,2013-02-13 15:55:00
10:15 AM,30.2,23.0,75,29.68,10.0,West,3.5,-,N/A,,Scattered Clouds,260,2013-02-13 16:15:00
10:35 AM,30.2,23.0,75,29.68,10.0,West,4.6,-,N/A,,Mostly Cloudy,260,2013-02-13 16:35:00
10:55 AM,30.2,23.0,75,29.68,10.0,SW,4.6,-,N/A,,Scattered Clouds,230,2013-02-13 16:55:00
11:15 AM,30.2,23.0,75,29.68,10.0,SW,3.5,-,N/A,,Scattered Clouds,220,2013-02-13 17:15:00
11:35 AM,32.0,23.0,69,29.68,10.0,WSW,4.6,-,N/A,,Scattered Clouds,250,2013-02-13 17:35:00
11:55 AM,32.0,23.0,69,29.67,10.0,South,3.5,-,N/A,,Scattered Clouds,190,2013-02-13 17:55:00
12:15 PM,32.0,24.8,75,29.66,10.0,SSW,3.5,-,N/A,,Scattered Clouds,200,2013-02-13 18:15:00
12:35 PM,32.0,24.8,75,29.66,10.0,South,5.8,-,N/A,,Scattered Clouds,180,2013-02-13 18:35:00
12:55 PM,32.0,24.8,75,29.66,10.0,WSW,4.6,-,N/A,,Scattered Clouds,240,2013-02-13 18:55:00
1:15 PM,33.8,24.8,70,29.66,10.0,SW,5.8,-,N/A,,Scattered Clouds,220,2013-02-13 19:15:00
1:35 PM,33.8,24.8,70,29.65,10.0,SW,5.8,-,N/A,,Overcast,230,2013-02-13 19:35:00
1:55 PM,33.8,26.6,75,29.65,10.0,WSW,4.6,-,N/A,,Overcast,240,2013-02-13 19:55:00
2:15 PM,35.6,24.8,65,29.65,10.0,WSW,4.6,-,N/A,,Overcast,250,2013-02-13 20:15:00
2:35 PM,35.6,26.6,70,29.65,10.0,SW,5.8,-,N/A,,Mostly Cloudy,230,2013-02-13 20:35:00
2:55 PM,35.6,26.6,70,29.65,10.0,SW,5.8,-,N/A,,Mostly Cloudy,230,2013-02-13 20:55:00
3:15 PM,35.6,26.6,70,29.65,10.0,SW,5.8,-,N/A,,Mostly Cloudy,230,2013-02-13 21:15:00
3:35 PM,35.6,26.6,70,29.65,10.0,SW,4.6,-,N/A,,Mostly Cloudy,230,2013-02-13 21:35:00
3:55 PM,35.6,26.6,70,29.64,10.0,SSW,4.6,-,N/A,,Overcast,210,2013-02-13 21:55:00
4:15 PM,35.6,26.6,70,29.64,10.0,SW,3.5,-,N/A,,Overcast,230,2013-02-13 22:15:00
4:35 PM,35.6,26.6,70,29.64,10.0,SW,3.5,-,N/A,,Overcast,220,2013-02-13 22:35:00
4:55 PM,35.6,26.6,70,29.64,10.0,SW,3.5,-,N/A,,Overcast,220,2013-02-13 22:55:00
5:15 PM,35.6,26.6,70,29.65,10.0,SW,4.6,-,N/A,,Overcast,220,2013-02-13 23:15:00
5:35 PM,35.6,26.6,70,29.65,10.0,SW,5.8,-,N/A,,Overcast,220,2013-02-13 23:35:00
5:55 PM,35.6,26.6,70,29.65,10.0,SW,3.5,-,N/A,,Overcast,230,2013-02-13 23:55:00
6:15 PM,35.6,26.6,70,29.65,10.0,SW,5.8,-,N/A,,Overcast,230,2013-02-14 00:15:00
6:35 PM,35.6,26.6,70,29.65,10.0,SW,4.6,-,N/A,,Mostly Cloudy,230,2013-02-14 00:35:00
6:55 PM,35.6,26.6,70,29.66,10.0,SW,5.8,-,N/A,,Mostly Cloudy,230,2013-02-14 00:55:00
7:15 PM,35.6,26.6,70,29.66,10.0,WSW,5.8,-,N/A,,Mostly Cloudy,250,2013-02-14 01:15:00
7:35 PM,35.6,28.4,75,29.66,10.0,WSW,4.6,-,N/A,,Overcast,240,2013-02-14 01:35:00
7:55 PM,35.6,28.4,75,29.65,10.0,WSW,3.5,-,N/A,,Overcast,240,2013-02-14 01:55:00
8:15 PM,35.6,28.4,75,29.66,10.0,WSW,3.5,-,N/A,,Mostly Cloudy,250,2013-02-14 02:15:00
8:35 PM,33.8,28.4,81,29.65,10.0,Calm,Calm,-,N/A,,Mostly Cloudy,0,2013-02-14 02:35:00
8:55 PM,33.8,28.4,81,29.65,10.0,Calm,Calm,-,N/A,,Scattered Clouds,0,2013-02-14 02:55:00
9:15 PM,32.0,28.4,87,29.66,10.0,Calm,Calm,-,N/A,,Mostly Cloudy,0,2013-02-14 03:15:00
9:35 PM,33.8,28.4,81,29.65,10.0,Calm,Calm,-,N/A,,Overcast,0,2013-02-14 03:35:00
9:55 PM,33.8,28.4,81,29.65,10.0,Calm,Calm,-,N/A,,Overcast,0,2013-02-14 03:55:00
10:15 PM,33.8,28.4,81,29.65,10.0,Calm,Calm,-,N/A,,Mostly Cloudy,0,2013-02-14 04:15:00
10:35 PM,33.8,28.4,81,29.64,10.0,Calm,Calm,-,N/A,,Mostly Cloudy,0,2013-02-14 04:35:00
10:55 PM,32.0,28.4,87,29.64,10.0,Calm,Calm,-,N/A,,Mostly Cloudy,0,2013-02-14 04:55:00
11:15 PM,32.0,28.4,87,29.64,10.0,Calm,Calm,-,N/A,,Mostly Cloudy,0,2013-02-14 05:15:00
11:35 PM,32.0,28.4,87,29.64,5.0,Calm,Calm,-,N/A,Snow,Light Snow,0,2013-02-14 05:35:00
11:55 PM,32.0,28.4,87,29.64,7.0,Calm,Calm,-,N/A,Snow,Light Snow,0,2013-02-14 05:55:00